Regional Weather Roundup
Issued by NWS

Home | Current Version | Previous Version | Text Only | Print | Product List | Glossary Off
Versions: 1 2 3 4 5 6 7 8 9 10 11 12 13 14 15 16 17 18 19 20 21 22 23 24 25 26 27 28 29 30 31 32 33 34 35 36 37 38 39 40 41 42 43 44 45 46 47 48 49 50

000
ASUS43 KLMK 300702
RWRKY
KENTUCKY REGIONAL WEATHER ROUNDUP
NATIONAL WEATHER SERVICE LOUISVILLE KY
300 AM EDT TUE MAY 30 2017

NOTE "FAIR" INDICATES FEW OR NO CLOUDS BELOW 12,000 FEET
WITH NO SIGNIFICANT WEATHER AND/OR OBSTRUCTIONS TO VISIBILITY.

KYZ001>023-026-027-061>063-070>075-300800-
WESTERN AND SOUTH CENTRAL KENTUCKY

CITY           SKY/WX    TMP DP  RH WIND       PRES   REMARKS
PADUCAH        PTCLDY    64  60  87 SW5       30.00S
HENDERSON      PTCLDY    63  61  93 CALM      30.02R
OWENSBORO      MOCLDY    63  60  90 S6        30.02S
HOPKINSVILLE   DRIZZLE   68  63  83 N7        30.05S
BOWLING GREEN  CLOUDY    69  59  70 NW5       30.06R
GLASGOW        NOT AVBL
$$

KYZ024-025-028>034-038-045-046-053-300800-
NORTH CENTRAL KENTUCKY

CITY           SKY/WX    TMP DP  RH WIND       PRES   REMARKS
LOUISVILLE/SDF CLOUDY    69  54  58 W9        29.99R
LOUISVILLE/LOU CLOUDY    70  55  59 W5        30.00R
FORT KNOX      CLOUDY    66  54  64 W8        29.99R
$$

KYZ035>037-039>044-047>052-055>060-089>105-300800-
NORTHEAST KENTUCKY

CITY           SKY/WX    TMP DP  RH WIND       PRES   REMARKS
LEXINGTON      CLOUDY    67  60  78 SW9       30.01R
COVINGTON      PTCLDY    65  57  75 SW7       29.96R
FRANKFORT      CLOUDY    66  60  81 SW7       29.98S
$$

KYZ054-064>069-076>088-106>120-300800-
SOUTHEAST KENTUCKY

CITY           SKY/WX    TMP DP  RH WIND       PRES   REMARKS
JACKSON        PTCLDY    64  60  87 CALM      30.03S
LONDON         CLOUDY    63  60  90 CALM      30.04S
SOMERSET       CLOUDY    61  61 100 CALM      30.05S
MIDDLESBORO    CLOUDY    61  61 100 CALM      30.07S
MONTICELLO     PTSUNNY   62  61  96 NE8       30.07R
$$





USA.gov is the U.S. government's official web portal to all federal, state and local government web resources and services.